Temp
12 11 12 11 11 12 12 12 11 10 10 10 10 10 8 9 9 9 8 7 6 6 5 4 4 3 2 2 1 1 1 0 1 1 1 0 -1 -2 -3 -3 -3 -4 -5 -5
11 11 12 11 11 11 11 11 11 10 10 9 8 10 8 10 10 8 7 7 6 5 5 4 3 2 2 1 1 1 1 0 0 1 0 -0 -2 -3 -3 -3 -4 -5 -6 -6
12 11 11 11 11 10 10 11 10 10 10 9 9 8 9 8 9 9 8 7 7 6 4 4 3 2 1 1 1 1 0 -0 0 0 -0 -1 -3 -4 -4 -5 -6 -6 -6 -6
11 10 11 11 10 10 11 10 10 10 9 11 8 12 11 9 9 9 8 8 7 7 5 4 3 2 1 1 0 0 -0 -0 -0 -0 -1 -2 -3 -4 -5 -6 -6 -6 -7 -7
11 11 10 10 10 11 11 10 10 9 9 8 8 8 12 10 10 9 9 8 7 7 5 4 3 2 1 1 0 -0 -1 -0 -0 -1 -2 -3 -4 -5 -6 -6 -7 -7 -7 -8
10 10 10 10 11 10 10 10 9 9 9 10 10 8 12 9 9 9 8 8 8 7 6 4 3 2 1 -0 -0 -1 -1 -1 -1 -2 -3 -4 -5 -5 -6 -7 -7 -7 -8 -8
9 10 10 10 10 10 9 9 12 12 11 12 7 7 10 9 9 9 8 8 8 7 7 5 3 1 0 -0 -1 -1 -1 -1 -1 -2 -4 -5 -5 -6 -7 -7 -7 -8 -8 -9
11 10 10 10 10 10 9 10 11 11 13 12 7 10 10 9 9 8 8 7 7 6 6 5 3 1 -0 -1 -1 -1 -1 -2 -2 -3 -4 -5 -6 -7 -7 -8 -8 -8 -9 -9
10 11 10 10 10 9 8 8 9 9 8 9 11 9 9 9 8 8 7 6 6 6 5 4 2 1 -0 -1 -2 -2 -2 -2 -3 -4 -5 -6 -6 -7 -8 -8 -8 -9 -9 -10
10 10 9 9 9 9 8 9 8 8 10 11 12 10 12 8 7 7 7 6 5 5 4 3 2 0 -1 -1 -2 -2 -2 -3 -4 -5 -6 -6 -7 -7 -8 -8 -9 -9 -10 -10
9 9 8 8 8 9 8 8 8 9 8 11 12 12 9 8 7 7 6 5 5 4 3 2 1 -0 -1 -2 -2 -2 -3 -3 -4 -5 -6 -7 -7 -8 -8 -8 -9 -9 -10 -11
8 9 9 9 8 9 8 8 8 9 9 7 7 9 9 8 7 6 6 5 5 4 3 2 1 -1 -1 -2 -2 -3 -4 -4 -5 -6 -7 -7 -8 -8 -9 -9 -9 -10 -10 -11
8 8 9 8 7 8 8 8 8 7 8 8 9 10 8 7 6 6 5 5 4 4 3 1 -0 -1 -2 -2 -3 -4 -4 -5 -6 -6 -7 -7 -8 -9 -9 -9 -10 -10 -11 -11
7 7 8 10 10 9 8 9 8 7 8 9 8 9 7 7 6 5 5 5 4 3 2 1 -0 -1 -2 -3 -3 -4 -5 -5 -6 -7 -7 -8 -9 -9 -9 -9 -10 -10 -11 -12
6 6 7 8 8 8 8 8 8 7 8 7 9 7 6 6 6 5 5 4 3 2 1 0 -1 -2 -3 -3 -4 -4 -5 -6 -7 -7 -8 -8 -9 -9 -9 -10 -10 -11 -11 -12
5 5 6 6 7 7 8 7 7 7 7 6 6 6 7 6 6 5 5 4 3 2 1 -0 -1 -2 -3 -4 -4 -5 -6 -7 -7 -7 -8 -9 -9 -9 -10 -10 -11 -11 -11 -12
5 5 5 6 6 6 6 7 8 7 8 7 6 6 6 6 5 5 4 3 2 1 -0 -1 -2 -3 -4 -4 -5 -6 -6 -7 -7 -8 -9 -9 -9 -10 -10 -11 -11 -11 -12 -12
4 4 4 5 5 4 7 8 8 7 6 6 6 6 5 5 4 4 3 2 1 0 -1 -2 -3 -3 -4 -5 -5 -6 -7 -7 -8 -9 -9 -9 -10 -10 -11 -11 -11 -11 -12 -12
4 3 3 4 5 6 7 7 8 7 7 6 6 5 5 4 4 3 2 1 0 -1 -1 -2 -3 -4 -5 -5 -6 -7 -7 -8 -8 -9 -9 -10 -10 -10 -10 -11 -11 -11 -12 -12
4 3 2 3 3 6 7 7 6 6 6 6 6 5 4 4 4 3 1 0 -0 -1 -2 -3 -4 -4 -5 -6 -7 -7 -7 -8 -9 -9 -10 -10 -10 -10 -11 -11 -11 -11 -12 -13
3 3 3 3 2 4 5 5 5 5 5 5 4 4 4 3 3 1 0 -0 -1 -1 -2 -3 -4 -5 -5 -6 -7 -7 -8 -9 -9 -10 -10 -10 -10 -11 -11 -11 -11 -11 -12 -13
2 2 2 2 2 3 4 2 2 3 3 3 2 3 3 2 1 -0 -1 -1 -2 -2 -3 -3 -4 -5 -6 -7 -7 -8 -9 -9 -10 -10 -10 -10 -11 -11 -11 -11 -12 -12 -12 -13
1 1 1 1 2 2 2 1 1 1 1 1 1 2 1 0 -0 -1 -1 -2 -2 -2 -3 -4 -5 -6 -6 -7 -8 -9 -9 -10 -10 -10 -11 -11 -11 -11 -11 -12 -12 -12 -13 -13
-0 0 -0 0 1 1 1 1 1 0 0 1 1 1 0 -1 -1 -1 -2 -2 -3 -3 -4 -4 -5 -6 -7 -7 -8 -9 -9 -10 -10 -10 -11 -11 -11 -11 -12 -12 -12 -12 -13 -13
0 0 -2 -1 -1 -1 -1 -0 -1 -0 1 0 0 -0 -1 -1 -2 -2 -2 -3 -3 -4 -4 -5 -6 -7 -7 -8 -9 -9 -10 -10 -10 -11 -11 -11 -11 -12 -12 -12 -12 -12 -12 -13
1 0 -0 -1 -1 -1 -1 -2 -1 -0 0 -0 -1 -1 -2 -3 -2 -3 -3 -3 -4 -4 -5 -6 -6 -7 -8 -8 -9 -10 -10 -10 -11 -11 -11 -11 -12 -12 -12 -12 -12 -12 -13 -13
Height
3169 3172 3171 3172 3175 3174 3177 3177 3178 3178 3175 3175 3175 3174 3170 3169 3168 3167 3167 3166 3165 3164 3163 3162 3161 3159 3157 3155 3152 3147 3143 3139 3134 3128 3122 3114 3107 3099 3090 3082 3075 3067 3061 3055
3167 3168 3170 3170 3171 3173 3174 3175 3176 3173 3172 3173 3172 3169 3170 3163 3163 3163 3161 3159 3159 3158 3158 3158 3156 3154 3153 3151 3148 3143 3139 3135 3130 3123 3116 3110 3102 3094 3085 3076 3069 3063 3057 3053
3165 3165 3164 3166 3168 3170 3171 3173 3172 3173 3169 3168 3168 3164 3162 3160 3158 3157 3156 3154 3153 3152 3153 3153 3151 3150 3149 3146 3143 3139 3136 3132 3126 3119 3112 3104 3096 3088 3081 3073 3067 3061 3055 3049
3163 3161 3162 3164 3166 3168 3170 3168 3169 3168 3168 3167 3166 3162 3159 3156 3153 3152 3151 3150 3148 3148 3148 3148 3146 3145 3144 3142 3139 3136 3132 3128 3121 3115 3107 3099 3091 3084 3076 3069 3062 3056 3050 3044
3160 3158 3161 3162 3164 3165 3167 3166 3166 3166 3167 3164 3162 3164 3153 3150 3150 3149 3148 3146 3145 3143 3143 3143 3141 3141 3140 3138 3136 3133 3129 3123 3117 3109 3102 3094 3087 3079 3071 3065 3059 3053 3048 3042
3156 3158 3158 3160 3160 3162 3163 3164 3164 3163 3164 3160 3158 3160 3150 3149 3147 3146 3145 3143 3141 3139 3138 3137 3137 3137 3136 3134 3132 3129 3125 3119 3112 3104 3097 3090 3083 3075 3068 3062 3056 3051 3044 3039
3155 3156 3156 3157 3158 3159 3161 3163 3161 3158 3158 3152 3153 3155 3147 3144 3143 3143 3142 3141 3139 3136 3134 3133 3133 3132 3132 3131 3128 3125 3120 3114 3106 3099 3092 3086 3079 3071 3064 3059 3054 3048 3041 3036
3152 3154 3153 3154 3156 3158 3157 3161 3158 3152 3147 3149 3152 3147 3143 3141 3140 3140 3139 3138 3136 3133 3131 3130 3129 3128 3128 3127 3124 3121 3115 3108 3102 3095 3088 3081 3074 3067 3061 3057 3051 3045 3039 3034
3149 3149 3149 3150 3151 3155 3154 3155 3156 3155 3153 3151 3143 3143 3140 3138 3138 3137 3137 3135 3133 3130 3128 3127 3125 3125 3124 3123 3120 3116 3110 3104 3098 3091 3084 3077 3070 3064 3060 3054 3049 3042 3037 3031
3146 3147 3146 3146 3148 3149 3150 3151 3153 3154 3149 3141 3136 3139 3135 3135 3135 3135 3134 3132 3129 3127 3125 3123 3122 3121 3121 3119 3116 3111 3106 3100 3094 3087 3080 3073 3066 3061 3057 3052 3046 3040 3035 3029
3143 3144 3144 3143 3142 3145 3145 3146 3148 3148 3146 3140 3134 3132 3133 3133 3133 3132 3130 3128 3126 3123 3121 3119 3118 3118 3117 3115 3111 3107 3102 3096 3089 3082 3075 3068 3063 3059 3055 3050 3044 3038 3031 3025
3140 3139 3139 3140 3137 3139 3141 3142 3143 3142 3141 3140 3138 3134 3131 3130 3130 3129 3126 3124 3121 3119 3117 3116 3115 3114 3113 3111 3107 3103 3097 3091 3085 3078 3072 3066 3062 3057 3053 3047 3042 3035 3028 3022
3136 3136 3136 3136 3137 3134 3134 3133 3135 3136 3135 3134 3135 3130 3128 3127 3126 3125 3122 3120 3118 3115 3114 3113 3112 3111 3109 3107 3103 3098 3093 3087 3081 3074 3068 3065 3060 3056 3051 3045 3039 3032 3025 3019
3133 3132 3133 3130 3131 3130 3130 3128 3129 3130 3130 3129 3126 3126 3124 3123 3121 3120 3118 3116 3114 3112 3111 3110 3109 3108 3106 3103 3099 3094 3089 3084 3078 3071 3066 3063 3059 3054 3049 3043 3037 3030 3023 3017
3130 3128 3129 3128 3127 3127 3127 3127 3125 3124 3123 3124 3122 3121 3121 3119 3118 3116 3114 3112 3111 3109 3108 3107 3106 3104 3102 3099 3095 3090 3085 3080 3074 3068 3065 3061 3057 3052 3047 3041 3035 3028 3022 3015
3126 3126 3125 3124 3123 3123 3122 3121 3121 3120 3121 3118 3118 3117 3116 3116 3114 3112 3111 3109 3108 3106 3105 3104 3103 3101 3099 3095 3091 3086 3081 3076 3071 3067 3063 3060 3055 3051 3046 3040 3034 3027 3021 3014
3124 3124 3124 3121 3120 3119 3117 3114 3114 3114 3114 3115 3115 3115 3113 3112 3111 3109 3108 3106 3104 3104 3103 3101 3100 3098 3095 3091 3087 3083 3078 3073 3068 3065 3061 3057 3053 3050 3044 3039 3032 3026 3020 3013
3120 3121 3122 3120 3119 3118 3111 3108 3108 3108 3107 3109 3111 3111 3110 3109 3108 3107 3105 3103 3102 3101 3100 3098 3096 3094 3091 3088 3084 3081 3075 3070 3066 3063 3060 3056 3051 3049 3043 3038 3031 3026 3019 3012
3118 3118 3120 3119 3116 3112 3109 3106 3105 3104 3105 3105 3106 3108 3108 3108 3107 3106 3104 3102 3101 3100 3098 3095 3093 3091 3087 3084 3080 3077 3072 3068 3064 3062 3059 3056 3053 3050 3044 3038 3032 3026 3019 3012
3115 3116 3120 3118 3115 3109 3107 3104 3102 3102 3102 3102 3103 3104 3106 3107 3105 3102 3100 3099 3097 3096 3094 3092 3089 3087 3084 3080 3077 3073 3069 3066 3064 3062 3060 3057 3054 3049 3043 3038 3032 3025 3018 3012
3113 3114 3116 3117 3115 3111 3106 3105 3102 3104 3106 3101 3103 3104 3106 3104 3103 3100 3097 3097 3095 3092 3090 3088 3085 3083 3080 3077 3074 3069 3067 3065 3064 3062 3059 3057 3053 3049 3044 3039 3033 3026 3019 3013
3110 3109 3108 3108 3111 3111 3106 3107 3107 3106 3103 3103 3102 3102 3102 3101 3099 3098 3095 3094 3091 3089 3088 3085 3082 3079 3077 3075 3071 3068 3066 3065 3063 3062 3059 3057 3053 3049 3044 3040 3034 3027 3021 3015
3108 3108 3108 3106 3103 3100 3104 3103 3103 3102 3101 3101 3100 3099 3100 3099 3096 3094 3093 3091 3089 3086 3084 3082 3080 3077 3074 3072 3069 3067 3065 3064 3063 3061 3060 3057 3053 3049 3046 3042 3036 3030 3023 3017
3102 3101 3102 3100 3098 3100 3098 3097 3096 3096 3096 3098 3099 3097 3098 3097 3093 3091 3090 3087 3085 3083 3081 3079 3077 3075 3073 3070 3068 3066 3065 3064 3063 3062 3060 3057 3054 3051 3048 3044 3038 3033 3027 3020
3099 3097 3095 3093 3093 3092 3091 3092 3092 3093 3095 3096 3097 3096 3094 3093 3090 3088 3086 3084 3082 3080 3079 3077 3075 3073 3070 3068 3066 3066 3065 3064 3063 3062 3061 3058 3056 3053 3050 3045 3040 3036 3030 3024
3094 3091 3090 3092 3090 3088 3087 3092 3091 3092 3093 3092 3092 3091 3088 3088 3086 3085 3083 3081 3079 3077 3076 3074 3073 3069 3067 3066 3066 3065 3065 3066 3065 3063 3061 3060 3058 3055 3051 3047 3043 3038 3033 3027
Wind_Speed
14 11 15 17 13 13 7 8 9 10 11 11 14 15 23 21 23 25 24 24 24 25 24 22 22 24 26 26 28 31 34 36 40 44 44 42 41 41 40 40 39 38 36 34
13 15 13 12 16 13 8 9 9 10 11 11 13 18 19 26 23 25 29 30 28 28 25 25 25 26 27 27 29 32 34 36 41 45 44 41 40 39 39 40 38 35 33 32
14 10 14 14 14 14 10 10 9 8 13 13 15 20 20 24 22 25 29 31 31 30 29 29 28 28 27 28 30 32 34 37 42 44 42 41 40 39 38 36 33 31 31 31
13 17 15 11 16 14 14 14 15 14 8 9 8 9 14 12 19 18 22 25 27 28 28 29 29 28 28 29 30 32 34 37 42 43 41 40 38 38 36 34 32 32 32 32
12 14 17 15 11 14 13 15 12 10 9 8 10 10 11 13 9 9 10 14 18 22 27 29 30 29 29 29 30 32 33 38 42 41 40 38 37 37 34 31 30 29 30 31
14 12 13 14 16 15 14 12 10 8 8 11 10 11 6 4 4 8 12 13 15 16 20 25 27 28 28 28 29 30 34 39 41 40 39 37 37 34 31 29 28 29 30 31
12 15 15 13 14 14 14 8 8 7 5 4 4 6 11 11 7 7 6 9 9 11 15 19 22 25 26 26 28 29 35 39 39 39 37 36 35 32 30 29 29 29 30 30
14 9 17 17 17 12 15 14 10 7 5 2 3 8 5 7 8 3 5 6 12 12 14 16 19 21 23 24 25 29 35 38 38 37 36 35 32 30 28 28 29 30 29 28
9 10 12 19 19 17 12 14 14 10 11 8 12 10 13 9 4 6 3 12 12 12 13 15 16 17 20 21 24 30 34 36 37 35 34 32 30 28 26 27 28 29 28 26
14 10 10 16 18 20 19 11 5 8 5 7 5 9 7 6 5 6 10 16 14 12 13 13 13 15 17 20 24 30 34 35 34 33 32 30 28 26 26 27 28 28 27 25
17 15 9 13 18 16 16 17 14 11 7 6 7 5 7 8 8 8 16 17 15 14 14 13 13 14 15 20 26 30 33 33 33 31 30 28 26 25 26 27 27 27 26 25
18 12 19 16 18 19 18 17 18 15 9 9 5 11 14 10 9 13 19 18 15 14 13 13 12 13 16 21 26 30 32 32 31 29 28 26 24 24 25 26 27 27 26 26
12 12 18 10 11 18 21 23 22 19 19 15 9 7 9 9 13 18 19 16 14 13 13 12 12 13 17 23 26 30 31 30 29 28 26 24 22 23 25 26 26 27 26 26
16 15 18 21 17 5 10 21 24 23 18 18 22 15 13 16 18 19 16 15 13 12 12 12 11 15 19 23 27 30 29 29 27 26 24 21 21 23 25 26 27 27 27 27
19 17 18 20 26 27 21 19 19 22 24 17 14 12 10 17 19 15 15 15 14 11 11 11 13 17 20 24 27 29 28 26 25 24 21 20 21 23 25 26 27 28 28 27
15 19 18 19 23 22 23 21 20 20 19 23 21 17 20 18 13 15 15 15 12 10 10 12 15 18 21 24 27 27 26 24 23 22 19 19 21 22 24 25 26 28 28 26
16 14 14 22 18 17 15 23 25 26 25 20 18 15 15 12 13 13 13 13 11 10 11 13 15 18 21 24 26 25 23 22 22 18 17 18 20 22 23 25 27 27 27 25
17 17 13 16 13 4 20 22 20 21 27 21 20 17 12 12 11 12 13 13 11 12 13 14 16 19 21 24 24 22 21 21 19 15 15 17 19 21 23 25 27 28 27 23
14 13 8 9 10 18 21 21 17 16 13 13 15 11 11 11 10 13 14 12 13 14 13 15 17 19 22 22 21 20 19 19 15 14 15 17 20 22 24 25 27 27 27 21
14 11 10 13 7 7 15 17 16 12 9 11 13 14 8 10 14 15 14 14 15 14 14 15 17 19 20 20 19 18 19 17 14 14 16 18 19 20 22 25 27 28 27 22
17 18 12 13 13 14 17 8 5 7 6 5 6 5 8 11 14 13 12 14 13 13 14 14 16 18 18 17 17 18 17 15 12 13 15 16 17 20 23 25 26 28 27 21
12 8 9 11 7 12 16 5 4 5 8 9 9 12 11 13 13 11 12 13 14 14 14 14 15 16 16 16 17 17 15 11 10 12 13 14 17 19 22 23 25 27 25 20
11 13 11 11 12 17 6 4 6 10 13 12 13 11 12 12 10 12 14 14 14 13 13 14 15 14 14 15 15 14 11 9 9 10 11 14 15 18 20 22 24 25 24 20
13 16 21 26 27 25 24 20 18 25 15 13 13 14 15 13 11 13 14 15 13 12 13 14 13 13 13 13 12 11 8 7 7 8 10 12 15 17 18 20 23 24 24 22
21 22 14 21 27 22 19 32 22 16 18 16 18 16 14 14 14 15 16 14 12 12 13 12 11 11 12 11 10 8 6 5 6 8 9 12 14 15 17 20 22 24 26 27
20 21 21 20 25 17 15 14 17 17 17 15 18 17 19 16 16 16 16 13 12 11 11 10 10 10 10 10 7 5 5 5 6 8 10 11 13 14 17 19 21 24 26 28
Wind_Direction
228 209 216 221 214 233 227 218 211 211 246 261 271 267 265 272 269 274 280 277 275 271 273 275 278 282 290 300 309 317 322 329 334 336 336 336 335 335 336 336 336 338 338 336
226 228 232 216 225 233 231 214 218 256 269 265 255 272 249 273 277 276 277 277 274 271 277 273 276 279 289 298 308 315 321 327 332 334 334 335 335 335 336 338 339 339 337 337
222 234 230 219 229 227 227 232 242 265 283 273 271 284 259 259 277 277 273 274 274 272 269 270 272 279 287 297 306 313 319 325 331 333 334 335 336 336 338 340 340 339 339 339
233 239 241 234 226 230 243 254 263 272 260 279 268 288 293 263 287 284 276 279 278 276 271 273 275 278 285 296 304 310 316 325 330 332 333 335 336 337 340 342 342 340 340 342
229 240 237 236 227 231 239 258 264 262 244 275 259 264 282 289 295 287 293 292 283 276 272 272 273 277 285 293 300 307 316 325 330 332 334 335 337 339 343 344 342 340 341 341
230 235 217 217 235 232 242 255 263 265 246 260 263 238 278 254 301 296 303 297 286 279 273 271 273 275 281 289 298 307 318 326 330 332 334 335 338 342 344 343 342 341 342 340
232 233 232 228 234 233 227 216 258 234 216 278 217 221 256 271 281 292 302 293 300 300 284 272 268 271 278 287 297 308 319 327 330 333 334 337 340 344 345 343 343 342 342 339
224 226 233 233 221 239 228 228 245 276 259 295 236 246 252 269 293 262 302 319 320 297 282 268 262 268 276 287 298 311 322 327 331 332 335 339 343 346 345 344 343 343 341 337
230 234 238 234 235 226 235 225 238 261 276 269 256 260 264 265 240 317 314 338 320 294 277 266 262 267 276 289 302 315 324 328 330 332 337 341 345 346 345 344 342 342 339 337
244 244 241 235 233 233 229 235 232 227 263 261 223 261 270 237 270 281 318 330 316 290 278 269 267 270 281 294 307 319 325 329 330 334 339 343 345 346 344 344 343 341 338 339
231 235 249 233 229 230 226 232 227 234 238 275 286 279 243 234 272 278 315 321 309 289 277 271 268 273 286 300 313 321 326 328 332 336 341 344 345 345 345 344 343 341 340 341
235 240 239 240 245 245 230 236 231 237 232 233 266 279 272 255 251 287 312 313 303 288 279 269 267 277 292 307 315 322 325 329 332 337 342 345 345 345 345 344 343 342 343 342
256 240 245 248 264 250 237 240 235 235 241 242 256 269 247 253 278 304 311 309 300 288 278 267 270 285 299 308 316 322 326 329 333 339 343 344 345 345 345 345 345 345 346 342
242 239 244 258 282 269 243 249 242 234 241 248 244 256 267 275 293 306 311 310 301 285 269 266 274 290 300 308 316 322 326 329 334 340 343 344 345 346 347 347 348 348 347 344
248 252 260 257 264 268 268 269 261 231 242 232 265 245 236 279 295 304 310 310 305 281 268 266 284 291 300 309 316 321 326 330 335 342 342 344 346 348 348 349 350 350 349 345
274 256 267 273 270 266 268 268 260 255 244 246 256 261 274 284 291 304 308 310 296 277 275 285 286 291 302 308 315 320 324 330 338 342 342 345 349 350 350 351 352 353 351 347
286 273 276 270 275 277 270 268 265 259 259 253 251 260 277 279 292 299 306 299 281 285 291 288 287 294 302 308 315 319 324 333 340 340 341 347 351 351 352 353 356 354 353 352
294 267 276 272 280 248 274 269 263 251 251 250 256 264 265 277 288 297 297 281 287 302 298 289 289 296 302 310 315 319 326 336 339 340 341 349 352 352 355 357 359 356 357 0
320 287 278 250 253 270 275 274 267 255 259 241 239 252 277 282 294 296 287 287 305 308 299 290 290 296 304 310 315 320 330 336 337 339 344 353 356 358 357 359 359 359 2 7
310 347 273 285 275 258 288 275 258 221 240 253 249 251 269 294 298 296 288 295 303 302 295 291 292 298 305 311 316 324 334 336 341 346 356 1 357 359 1 2 1 2 4 8
260 272 288 301 275 279 294 282 201 211 273 268 236 277 286 290 289 285 294 297 301 300 293 292 296 301 308 315 323 332 336 345 351 360 5 359 359 4 6 6 5 5 6 8
266 248 248 241 268 260 290 274 297 287 270 267 283 268 265 286 290 294 303 301 304 301 297 298 301 308 316 323 331 338 346 354 6 9 2 2 7 8 10 9 10 9 8 11
256 257 260 250 236 227 256 260 294 298 290 272 264 263 280 281 294 308 307 305 301 300 299 304 309 315 324 332 339 345 354 9 18 11 8 12 12 15 13 14 16 16 15 18
280 271 254 265 262 245 243 246 262 277 248 254 263 277 281 282 299 304 301 303 300 303 305 310 313 322 333 341 341 352 7 31 27 19 18 17 20 18 18 20 22 23 25 26
285 299 274 271 273 263 274 247 251 231 243 257 265 270 285 286 294 297 301 300 300 307 306 310 319 330 339 341 351 3 43 53 39 35 27 26 24 22 23 25 25 27 30 33
290 297 300 302 299 296 278 259 266 245 249 259 273 271 283 280 288 298 303 297 300 303 306 313 322 335 341 348 4 51 79 65 53 46 38 33 29 28 29 29 29 31 33 34